This demonstration page uses our WeatherBlox Daily Observations layout. Learn more.

Left ArrowRight Arrow

39.08367, -84.50855

Hourly Observations for March 13, 2018

Temp ( °F °C ) Dew Point ( °F °C ) Humidity (%) Winds ( mph kmh ) Pressure ( in mb ) Visibility ( mi km ) Precip ( " mm )
12:53 am 00:53 Clear 34 1.1 27 -2.8 76 76 WNW 6 9 30.12 1020 10 16 N/A
1:53 am 01:53 Clear 33 0.6 26 -3.3 75 75 WNW 5 7 30.12 1020 10 16 N/A
2:53 am 02:53 Clear 33 0.6 25 -3.9 72 72 W 5 7 30.12 1020 10 16 N/A
3:53 am 03:53 Clear 31 -0.6 25 -3.9 79 79 WNW 5 7 30.11 1020 10 16 N/A
4:53 am 04:53 Clear 30 -1.1 24 -4.4 79 79 WNW 6 9 30.10 1019 10 16 N/A
5:53 am 05:53 Clear 30 -1.1 24 -4.4 79 79 WNW 9 15 30.10 1019 10 16 N/A
6:53 am 06:53 Clear 28 -2.2 23 -5 81 81 WNW 6 9 30.11 1020 10 16 N/A
7:53 am 07:53 Cloudy 27 -2.8 24 -4.4 89 89 WSW 3 6 30.13 1020 10 16 N/A
8:53 am 08:53 Cloudy 32 undefined 26 -3.3 79 79 N N/A 30.12 1020 10 16 N/A
9:53 am 09:53 Cloudy 34 1.1 26 -3.3 73 73 VRB 5 7 30.12 1020 10 16 N/A
10:53 am 10:53 Cloudy 37 2.8 27 -2.8 67 67 WNW 7 11 30.11 1020 10 16 N/A
11:53 am 11:53 Cloudy 38 3.3 24 -4.4 57 57 W 15 24 30.11 1020 10 16 N/A
12:53 pm 12:53 Cloudy with Light Snow 39 3.9 25 -3.9 57 57 VRB 6 9 30.09 1019 9 14 N/A
1:53 pm 13:53 Cloudy 41 5 25 -3.9 53 53 W 14 22 30.06 1018 10 16 N/A
2:06 pm 14:06 Mostly Cloudy with Heavy Snow 37 2.8 27 -2.8 67 67 NW 23 37 30.09 1019 1 2 N/A
2:15 pm 14:15 Cloudy with Heavy Snow 32 undefined 30 -1.1 92 92 NNW 10 17 30.12 1020 1 2 0.01 0.25
2:26 pm 14:26 Cloudy with Light Snow 32 undefined 31 -0.6 96 96 NW 8 13 30.12 1020 1 2 0.01 0.25
2:28 pm 14:28 Cloudy with Light Snow 32 undefined 31 -0.6 96 96 N 6 9 30.09 1019 1 1 0.01 0.25
2:34 pm 14:34 Cloudy with Light Snow 33 0.6 31 -0.6 92 92 VRB 3 6 30.06 1018 3 5 0.01 0.25
2:53 pm 14:53 Mostly Cloudy 36 2.2 32 undefined 86 86 N 15 24 30.07 1018 10 16 0.01 0.25
3:25 pm 15:25 Mostly Cloudy with Light Snow 37 2.8 30 -1.1 76 76 NNW 14 22 30.06 1018 3 4 0.01 0.25
3:32 pm 15:32 Mostly Cloudy with Light Snow 35 1.7 30 -1.1 82 82 NNW 16 26 30.06 1018 1 2 0.01 0.25
3:53 pm 15:53 Cloudy with Light Snow 33 0.6 30 -1.1 89 89 NW 12 19 30.09 1019 1 2 0.01 0.25
4:03 pm 16:03 Cloudy with Light Snow 32 undefined 29 -1.7 88 88 NNW 8 13 30.09 1019 2 3 N/A
4:05 pm 16:05 Cloudy with Light Snow 32 undefined 29 -1.7 88 88 NNW 10 17 30.09 1019 3 5 N/A
4:29 pm 16:29 Mostly Cloudy 37 2.8 29 -1.7 73 73 NNW 9 15 30.06 1018 10 16 N/A
4:53 pm 16:53 Mostly Cloudy 38 3.3 27 -2.8 65 65 NW 18 30 30.06 1018 10 16 N/A
5:08 pm 17:08 Mostly Cloudy with Light Snow 35 1.7 26 -3.3 70 70 NW 26 43 30.06 1018 1 2 N/A
5:13 pm 17:13 Mostly Cloudy with Snow 32 undefined 29 -1.7 88 88 NW 15 24 30.09 1019 1 1 N/A
5:18 pm 17:18 Mostly Cloudy with Snow 31 -0.6 29 -1.7 92 92 NW 12 19 30.09 1019 0 0 N/A
5:22 pm 17:22 Mostly Cloudy with Snow 31 -0.6 29 -1.7 92 92 NNW 12 19 30.09 1019 1 1 N/A
5:27 pm 17:27 Cloudy with Light Snow 32 undefined 28 -2.2 85 85 VRB 7 11 30.09 1019 4 6 N/A
5:53 pm 17:53 Mostly Cloudy 35 1.7 27 -2.8 72 72 WNW 13 20 30.07 1018 10 16 N/A
6:29 pm 18:29 Mostly Cloudy with Snow 33 0.6 27 -2.8 78 78 WNW 13 20 30.09 1019 1 2 N/A
6:32 pm 18:32 Mostly Cloudy with Light Snow 32 undefined 28 -2.2 85 85 W 13 20 30.09 1019 3 5 N/A
6:53 pm 18:53 Cloudy 33 0.6 25 -3.9 72 72 WNW 8 13 30.08 1019 10 16 N/A
7:53 pm 19:53 Partly Cloudy 33 0.6 22 -5.6 64 64 NW 9 15 30.10 1019 10 16 N/A
8:53 pm 20:53 Mostly Cloudy 31 -0.6 24 -4.4 76 76 NNW 8 13 30.11 1020 10 16 N/A
9:53 pm 21:53 Cloudy 30 -1.1 24 -4.4 79 79 NW 6 9 30.12 1020 10 16 N/A
10:53 pm 22:53 Mostly Clear 29 -1.7 22 -5.6 75 75 NW 5 7 30.12 1020 10 16 N/A
11:53 pm 23:53 Clear 29 -1.7 21 -6.1 72 72 NNW 5 7 30.12 1020 10 16 N/A

Powered by AerisWeather